Time,TemperatureF,DewpointF,PressureIn,WindDirection,WindDirectionDegrees,WindSpeedMPH,WindSpeedGustMPH,Humidity,HourlyPrecipIn,Conditions,Clouds,dailyrainin,SoftwareType,DateUTC
2013-12-03 00:01:00,37.7,36.0,29.68,SE,124,4.0,10.0,93,0.00,,,0.00,weatherlink.com 1.10,2013-12-03 06:01:00,
2013-12-03 00:16:00,37.3,36.0,29.67,South,186,4.0,7.0,93,0.00,,,0.00,weatherlink.com 1.10,2013-12-03 06:16:00,
2013-12-03 00:31:00,37.3,36.0,29.66,SE,146,3.0,8.0,93,0.00,,,0.00,weatherlink.com 1.10,2013-12-03 06:31:00,
2013-12-03 00:46:00,37.3,36.0,29.66,SSE,148,5.0,8.0,93,0.00,,,0.00,weatherlink.com 1.10,2013-12-03 06:46:00,
2013-12-03 01:01:00,37.2,35.0,29.66,SE,145,4.0,7.0,93,0.00,,,0.00,weatherlink.com 1.10,2013-12-03 07:01:00,
2013-12-03 01:16:00,37.0,36.0,29.66,SSE,168,1.0,9.0,94,0.00,,,0.00,weatherlink.com 1.10,2013-12-03 07:16:00,
2013-12-03 01:31:00,37.0,36.0,29.66,SSE,163,4.0,8.0,94,0.00,,,0.00,weatherlink.com 1.10,2013-12-03 07:31:00,
2013-12-03 01:47:00,37.2,36.0,29.66,SE,139,5.0,8.0,94,0.00,,,0.00,weatherlink.com 1.10,2013-12-03 07:47:00,
2013-12-03 02:02:00,37.4,36.0,29.65,SE,125,4.0,9.0,94,0.00,,,0.00,weatherlink.com 1.10,2013-12-03 08:02:00,
2013-12-03 02:17:00,37.5,36.0,29.65,SSE,166,3.0,10.0,95,0.00,,,0.00,weatherlink.com 1.10,2013-12-03 08:17:00,
2013-12-03 02:32:00,37.6,36.0,29.64,South,189,7.0,9.0,95,0.00,,,0.00,weatherlink.com 1.10,2013-12-03 08:32:00,
2013-12-03 02:47:00,37.5,36.0,29.64,SE,144,5.0,10.0,95,0.00,,,0.00,weatherlink.com 1.10,2013-12-03 08:47:00,
2013-12-03 03:02:00,37.5,36.0,29.65,SSE,156,5.0,7.0,95,0.00,,,0.00,weatherlink.com 1.10,2013-12-03 09:02:00,
2013-12-03 03:17:00,37.5,36.0,29.66,ESE,122,3.0,5.0,95,0.00,,,0.00,weatherlink.com 1.10,2013-12-03 09:17:00,
2013-12-03 03:32:00,37.6,36.0,29.66,SE,137,4.0,6.0,95,0.00,,,0.00,weatherlink.com 1.10,2013-12-03 09:32:00,
2013-12-03 03:47:00,37.6,36.0,29.66,SE,144,1.0,6.0,95,0.00,,,0.00,weatherlink.com 1.10,2013-12-03 09:47:00,
2013-12-03 04:02:00,37.5,36.0,29.66,SE,145,2.0,6.0,95,0.00,,,0.00,weatherlink.com 1.10,2013-12-03 10:02:00,
2013-12-03 04:17:00,37.4,36.0,29.65,ESE,110,3.0,7.0,95,0.00,,,0.00,weatherlink.com 1.10,2013-12-03 10:17:00,
2013-12-03 04:32:00,37.4,36.0,29.66,ESE,121,4.0,6.0,95,0.00,,,0.00,weatherlink.com 1.10,2013-12-03 10:32:00,
2013-12-03 04:47:00,37.3,36.0,29.66,SE,146,3.0,7.0,95,0.00,,,0.00,weatherlink.com 1.10,2013-12-03 10:47:00,
2013-12-03 05:02:00,37.2,36.0,29.64,SE,145,5.0,7.0,96,0.00,,,0.00,weatherlink.com 1.10,2013-12-03 11:02:00,
2013-12-03 05:17:00,37.2,36.0,29.64,East,98,6.0,7.0,96,0.00,,,0.00,weatherlink.com 1.10,2013-12-03 11:17:00,
2013-12-03 05:32:00,37.2,36.0,29.66,SSE,149,2.0,7.0,96,0.00,,,0.00,weatherlink.com 1.10,2013-12-03 11:32:00,
2013-12-03 05:47:00,37.1,36.0,29.66,SE,141,2.0,6.0,96,0.00,,,0.00,weatherlink.com 1.10,2013-12-03 11:47:00,
2013-12-03 06:02:00,37.1,36.0,29.65,SE,141,2.0,5.0,96,0.00,,,0.00,weatherlink.com 1.10,2013-12-03 12:02:00,
2013-12-03 06:17:00,37.1,36.0,29.65,SE,137,3.0,5.0,96,0.00,,,0.00,weatherlink.com 1.10,2013-12-03 12:17:00,
2013-12-03 06:32:00,37.1,36.0,29.65,SE,144,3.0,6.0,96,0.00,,,0.00,weatherlink.com 1.10,2013-12-03 12:32:00,
2013-12-03 06:47:00,37.4,36.0,29.65,ESE,118,3.0,6.0,96,0.00,,,0.00,weatherlink.com 1.10,2013-12-03 12:47:00,
2013-12-03 07:02:00,37.6,37.0,29.64,South,172,2.0,6.0,96,0.00,,,0.00,weatherlink.com 1.10,2013-12-03 13:02:00,
2013-12-03 07:17:00,37.8,37.0,29.64,South,180,7.0,9.0,97,0.00,,,0.00,weatherlink.com 1.10,2013-12-03 13:17:00,
2013-12-03 07:32:00,38.0,37.0,29.65,ESE,120,2.0,7.0,97,0.00,,,0.00,weatherlink.com 1.10,2013-12-03 13:32:00,
2013-12-03 07:47:00,38.2,38.0,29.66,SSE,162,4.0,7.0,97,0.00,,,0.00,weatherlink.com 1.10,2013-12-03 13:47:00,
2013-12-03 08:02:00,38.6,38.0,29.65,South,191,6.0,9.0,97,0.00,,,0.00,weatherlink.com 1.10,2013-12-03 14:02:00,
2013-12-03 08:17:00,38.7,38.0,29.65,South,182,2.0,9.0,97,0.00,,,0.00,weatherlink.com 1.10,2013-12-03 14:17:00,
2013-12-03 08:32:00,38.8,38.0,29.65,South,184,4.0,7.0,97,0.00,,,0.00,weatherlink.com 1.10,2013-12-03 14:32:00,
2013-12-03 08:47:00,39.2,39.0,29.65,SSE,168,5.0,10.0,97,0.00,,,0.00,weatherlink.com 1.10,2013-12-03 14:47:00,
2013-12-03 09:02:00,39.5,39.0,29.64,South,179,6.0,9.0,97,0.00,,,0.00,weatherlink.com 1.10,2013-12-03 15:02:00,
2013-12-03 09:17:00,39.7,39.0,29.64,SSE,151,8.0,11.0,97,0.00,,,0.00,weatherlink.com 1.10,2013-12-03 15:17:00,
2013-12-03 09:32:00,39.9,39.0,29.64,South,186,5.0,11.0,97,0.00,,,0.00,weatherlink.com 1.10,2013-12-03 15:32:00,
2013-12-03 09:47:00,40.3,40.0,29.65,South,182,3.0,9.0,97,0.00,,,0.00,weatherlink.com 1.10,2013-12-03 15:47:00,
2013-12-03 10:02:00,40.6,40.0,29.65,South,186,3.0,8.0,97,0.00,,,0.00,weatherlink.com 1.10,2013-12-03 16:02:00,
2013-12-03 10:17:00,41.0,40.0,29.65,South,178,4.0,8.0,97,0.00,,,0.00,weatherlink.com 1.10,2013-12-03 16:17:00,
2013-12-03 10:32:00,41.4,41.0,29.65,South,175,1.0,7.0,97,0.00,,,0.00,weatherlink.com 1.10,2013-12-03 16:32:00,
2013-12-03 10:47:00,41.7,41.0,29.66,SSE,160,4.0,6.0,97,0.00,,,0.00,weatherlink.com 1.10,2013-12-03 16:47:00,
2013-12-03 11:02:00,41.7,41.0,29.64,SSE,168,4.0,7.0,97,0.00,,,0.00,weatherlink.com 1.10,2013-12-03 17:02:00,
2013-12-03 11:17:00,42.2,41.0,29.65,South,179,6.0,6.0,97,0.00,,,0.00,weatherlink.com 1.10,2013-12-03 17:17:00,
2013-12-03 11:32:00,42.5,42.0,29.67,West,275,6.0,6.0,97,0.00,,,0.00,weatherlink.com 1.10,2013-12-03 17:32:00,
2013-12-03 11:47:00,42.6,42.0,29.67,WSW,250,2.0,5.0,97,0.00,,,0.00,weatherlink.com 1.10,2013-12-03 17:47:00,
2013-12-03 12:02:00,42.7,42.0,29.67,West,259,2.0,5.0,97,0.00,,,0.00,weatherlink.com 1.10,2013-12-03 18:02:00,
2013-12-03 12:17:00,42.8,42.0,29.65,SSE,165,4.0,4.0,97,0.00,,,0.00,weatherlink.com 1.10,2013-12-03 18:17:00,
2013-12-03 12:32:00,43.5,43.0,29.64,SSW,208,3.0,9.0,97,0.01,,,0.01,weatherlink.com 1.10,2013-12-03 18:32:00,
2013-12-03 12:47:00,43.4,43.0,29.63,SSE,162,3.0,6.0,97,0.01,,,0.01,weatherlink.com 1.10,2013-12-03 18:47:00,
2013-12-03 13:02:00,43.4,43.0,29.63,South,190,8.0,9.0,97,0.01,,,0.01,weatherlink.com 1.10,2013-12-03 19:02:00,
2013-12-03 13:17:00,43.7,43.0,29.62,SSE,149,1.0,12.0,97,0.01,,,0.01,weatherlink.com 1.10,2013-12-03 19:17:00,
2013-12-03 13:33:00,43.9,43.0,29.62,SSE,151,4.0,6.0,97,0.00,,,0.01,weatherlink.com 1.10,2013-12-03 19:33:00,
2013-12-03 13:47:00,44.1,43.0,29.63,SE,140,2.0,6.0,97,0.00,,,0.01,weatherlink.com 1.10,2013-12-03 19:47:00,
2013-12-03 14:03:00,44.2,43.0,29.61,SE,125,7.0,8.0,97,0.00,,,0.01,weatherlink.com 1.10,2013-12-03 20:03:00,
2013-12-03 14:18:00,44.5,44.0,29.60,SSE,155,6.0,10.0,97,0.01,,,0.02,weatherlink.com 1.10,2013-12-03 20:18:00,
2013-12-03 14:33:00,44.7,44.0,29.61,ESE,118,4.0,8.0,97,0.01,,,0.02,weatherlink.com 1.10,2013-12-03 20:33:00,
2013-12-03 14:48:00,44.7,44.0,29.61,SE,142,6.0,10.0,97,0.01,,,0.02,weatherlink.com 1.10,2013-12-03 20:48:00,
2013-12-03 15:03:00,44.7,44.0,29.61,SE,135,3.0,8.0,97,0.01,,,0.02,weatherlink.com 1.10,2013-12-03 21:03:00,
2013-12-03 15:19:00,44.7,44.0,29.61,SE,137,5.0,9.0,97,0.00,,,0.02,weatherlink.com 1.10,2013-12-03 21:19:00,
2013-12-03 15:33:00,44.7,44.0,29.61,SSE,151,4.0,8.0,97,0.00,,,0.02,weatherlink.com 1.10,2013-12-03 21:33:00,
2013-12-03 15:48:00,44.7,44.0,29.61,ESE,112,3.0,9.0,97,0.00,,,0.02,weatherlink.com 1.10,2013-12-03 21:48:00,
2013-12-03 16:03:00,44.7,44.0,29.62,SSE,158,7.0,10.0,97,0.00,,,0.02,weatherlink.com 1.10,2013-12-03 22:03:00,
2013-12-03 16:18:00,44.6,44.0,29.62,SSE,158,3.0,9.0,97,0.00,,,0.02,weatherlink.com 1.10,2013-12-03 22:18:00,
2013-12-03 16:33:00,44.6,44.0,29.62,SSE,168,6.0,7.0,97,0.00,,,0.02,weatherlink.com 1.10,2013-12-03 22:33:00,
2013-12-03 16:48:00,44.7,44.0,29.63,SSE,168,4.0,7.0,97,0.00,,,0.02,weatherlink.com 1.10,2013-12-03 22:48:00,
2013-12-03 17:03:00,44.8,44.0,29.63,SE,145,5.0,9.0,97,0.00,,,0.02,weatherlink.com 1.10,2013-12-03 23:03:00,
2013-12-03 17:18:00,44.8,44.0,29.64,SSE,168,4.0,7.0,97,0.00,,,0.02,weatherlink.com 1.10,2013-12-03 23:18:00,
2013-12-03 17:33:00,44.8,44.0,29.64,South,186,5.0,8.0,97,0.00,,,0.02,weatherlink.com 1.10,2013-12-03 23:33:00,
2013-12-03 17:48:00,44.8,44.0,29.65,South,171,5.0,8.0,97,0.00,,,0.02,weatherlink.com 1.10,2013-12-03 23:48:00,
2013-12-03 18:03:00,45.0,45.0,29.65,SE,144,5.0,10.0,98,0.00,,,0.02,weatherlink.com 1.10,2013-12-04 00:03:00,
2013-12-03 18:18:00,45.1,45.0,29.64,SSE,162,2.0,11.0,98,0.00,,,0.02,weatherlink.com 1.10,2013-12-04 00:18:00,
2013-12-03 18:33:00,45.3,45.0,29.64,SSE,162,8.0,13.0,98,0.00,,,0.02,weatherlink.com 1.10,2013-12-04 00:33:00,
2013-12-03 18:48:00,45.4,45.0,29.65,South,175,9.0,11.0,98,0.00,,,0.02,weatherlink.com 1.10,2013-12-04 00:48:00,
2013-12-03 19:03:00,45.6,45.0,29.65,SSE,160,2.0,11.0,98,0.00,,,0.02,weatherlink.com 1.10,2013-12-04 01:03:00,
2013-12-03 19:18:00,45.7,45.0,29.66,South,172,3.0,7.0,98,0.00,,,0.02,weatherlink.com 1.10,2013-12-04 01:18:00,
2013-12-03 19:33:00,45.9,45.0,29.65,South,173,5.0,9.0,98,0.00,,,0.02,weatherlink.com 1.10,2013-12-04 01:33:00,
2013-12-03 19:48:00,46.0,46.0,29.64,South,171,6.0,8.0,98,0.00,,,0.02,weatherlink.com 1.10,2013-12-04 01:48:00,
2013-12-03 20:03:00,46.3,46.0,29.65,South,189,4.0,7.0,98,0.00,,,0.02,weatherlink.com 1.10,2013-12-04 02:03:00,
2013-12-03 20:18:00,46.5,46.0,29.66,SSW,213,4.0,7.0,98,0.00,,,0.02,weatherlink.com 1.10,2013-12-04 02:18:00,
2013-12-03 20:33:00,46.8,46.0,29.66,South,186,3.0,7.0,98,0.00,,,0.02,weatherlink.com 1.10,2013-12-04 02:33:00,
2013-12-03 20:48:00,47.1,47.0,29.66,South,175,5.0,8.0,98,0.00,,,0.02,weatherlink.com 1.10,2013-12-04 02:48:00,
2013-12-03 21:03:00,47.3,47.0,29.66,SW,228,2.0,8.0,98,0.00,,,0.02,weatherlink.com 1.10,2013-12-04 03:03:00,
2013-12-03 21:18:00,47.4,47.0,29.66,SSW,198,5.0,9.0,98,0.00,,,0.02,weatherlink.com 1.10,2013-12-04 03:18:00,
2013-12-03 21:33:00,47.4,47.0,29.66,SSW,194,4.0,8.0,97,0.00,,,0.02,weatherlink.com 1.10,2013-12-04 03:33:00,
2013-12-03 21:48:00,47.4,47.0,29.66,South,176,2.0,5.0,97,0.00,,,0.02,weatherlink.com 1.10,2013-12-04 03:48:00,
2013-12-03 22:03:00,47.4,47.0,29.66,SSW,193,3.0,7.0,98,0.00,,,0.02,weatherlink.com 1.10,2013-12-04 04:03:00,
2013-12-03 22:18:00,47.5,47.0,29.66,SSW,210,4.0,6.0,98,0.00,,,0.02,weatherlink.com 1.10,2013-12-04 04:18:00,
2013-12-03 22:33:00,48.0,48.0,29.65,South,189,4.0,7.0,98,0.00,,,0.02,weatherlink.com 1.10,2013-12-04 04:33:00,
2013-12-03 22:48:00,47.9,47.0,29.66,South,179,4.0,6.0,98,0.00,,,0.02,weatherlink.com 1.10,2013-12-04 04:48:00,
2013-12-03 23:03:00,48.1,48.0,29.65,South,177,4.0,8.0,98,0.00,,,0.02,weatherlink.com 1.10,2013-12-04 05:03:00,
2013-12-03 23:18:00,48.2,48.0,29.66,SSW,203,5.0,7.0,98,0.00,,,0.02,weatherlink.com 1.10,2013-12-04 05:18:00,
2013-12-03 23:33:00,48.3,48.0,29.67,South,191,6.0,7.0,98,0.00,,,0.02,weatherlink.com 1.10,2013-12-04 05:33:00,
2013-12-03 23:48:00,48.5,48.0,29.67,West,265,4.0,7.0,98,0.00,,,0.02,weatherlink.com 1.10,2013-12-04 05:48:00,